sat.trackr.live / text

‹ back to catalog

STARLINK-3553

NORAD 51866 · 2022-022Q

PAYLOAD ACTIVE UNKNOWN

§ Identity

Operator
Country
US
Launch date
2022-03-03
Launch site
AFETR
Launch vehicle
Mass (kg)
RCS (m²)

Purposes: comms

External: N2YO · Heavens-Above · Gunter

§ Orbital elements

Epoch: 2026-09-19T11:15:13.466304Z

Period
93.90 min
Inclination
53.1602°
Eccentricity
0.0001207
Mean motion
15.33552671 rev/d
Perigee alt
464.4 km
Apogee alt
466.0 km
Semi-major
6,843.4 km
B*
2.0608e-5
RAAN
208.8148°
Arg perigee
95.8262°
Mean anomaly
264.2878°
Rev number
25,250

§ Raw data

STARLINK-35531 51866U 22022Q   26262.46890586  .00000305  00000+0  20608-4 0  99952 51866  53.1602 208.8148 0001207  95.8262 264.2878 15.33552671252507

JSON: /api/v1/satellites/51866 · /tle

For live sub-satellite position, see the globe view (requires WebGL).

§ Visibility from observer

Set your observer location to see the next 7 days of passes ≥ 10°. The values pass through the URL so the page stays shareable.

No JS? Fill the form by hand. The geolocation button needs JavaScript.